Weather in Yampil

Ukraine / Vinnytsia Region     48°14′42″N   28°16′40″E
temp.,
°C
wind,
m/s
gust,
m/s
humid.,
%
clouds,
%
prec.,
mm/h
press.,
hPa
HPBL,
m
12 april, mon
mon1200:00+8ese11510 0.0 102610
03:00+7e11530 0.0 102510
06:00+6ene11570 0.0 102410
09:00+10ene12495 0.0 1023217
12:00+14e22355 0.0 10221081
15:00+17ne1132100 0.0 10201503
18:00+16e3236100 0.0 10191219
21:00+12ese224997 0.0 102011
13 april, tue
tue1300:00+9e237395 0.0 102056
03:00+8ese1174100 0.0 101910
06:00+7e118287 0.0 101910
09:00+10ese2369100 0.0 1019260
12:00+14se2250100 0.0 1018846
15:00+16sse2242100 0.0 10171577
18:00+15ese3452100 0.0 1016636
21:00+11e3771100 0.0 1016135
14 april, wed
wed1400:00+10ese3377100 0.0 101674
03:00+8ese2378100 0.0 101564
06:00+8se3777100 0.0 1014299
09:00+10sse476585 0.0 1014465
12:00+13sse5654100 0.0 10141289
15:00+12sse5664100 0.1 10131267
18:00+12sse2462100 0.0 1012268
21:00+9sse3781100 0.2 1013685
15 april, thu
thu1500:00+7e4689100 0.7 1012377
03:00+8ene3793100 2.3 1010562
06:00+8ese5890100 0.4 1009476
09:00+7ese5789100 0.5 1010564
12:00+8s3385100 0.1 1011622
15:00+6sw4486100 0.1 1011534
18:00+4wsw4588100 0.0 1011469
21:00+3sw4592100 0.1 1011398
16 april, fri
fri1600:00+3wsw4692100 0.1 1011437
03:00+2sw5798100 0.7 1010335
06:00+2sw51098100 1.6 1010448
09:00+2ssw4899100 3.7 1010497
12:00+3ssw4797100 0.6 1012479
15:00+4ssw3596100 0.9 1013623
18:00+3sse1397100 0.7 1014428
21:00+3ne2397100 1.2 1015549